Time,TemperatureF,DewpointF,PressureIn,WindDirection,WindDirectionDegrees,WindSpeedMPH,WindSpeedGustMPH,Humidity,HourlyPrecipIn,Conditions,Clouds,dailyrainin,SoftwareType,DateUTC
2013-02-04 00:03:00,21.0,14.0,30.12,SW,220,1.0,4.0,73,0.00,,,0.00,,2013-02-04 05:03:00,
2013-02-04 00:11:00,21.0,14.0,30.12,SW,220,1.0,4.0,73,0.00,,,0.00,,2013-02-04 05:11:00,
2013-02-04 00:22:00,21.0,14.0,30.12,SSW,203,0.0,6.0,73,0.00,,,0.00,,2013-02-04 05:22:00,
2013-02-04 00:33:00,21.0,14.0,30.12,SW,234,1.0,5.0,73,0.00,,,0.00,,2013-02-04 05:33:00,
2013-02-04 00:42:00,21.0,14.0,30.12,SW,234,1.0,5.0,73,0.00,,,0.00,,2013-02-04 05:42:00,
2013-02-04 00:52:00,21.0,14.0,30.12,WSW,252,0.0,3.0,73,0.00,,,0.00,,2013-02-04 05:52:00,
2013-02-04 01:01:00,20.0,13.0,30.12,SW,234,0.0,3.0,74,0.00,,,0.00,,2013-02-04 06:01:00,
2013-02-04 01:11:00,20.0,13.0,30.12,SW,234,0.0,3.0,74,0.00,,,0.00,,2013-02-04 06:11:00,
2013-02-04 01:21:00,20.0,13.0,30.12,SW,215,0.0,3.0,75,0.00,,,0.00,,2013-02-04 06:21:00,
2013-02-04 01:32:00,20.0,13.0,30.11,SW,234,1.0,4.0,75,0.00,,,0.00,,2013-02-04 06:32:00,
2013-02-04 01:41:00,20.0,13.0,30.11,SW,234,1.0,4.0,75,0.00,,,0.00,,2013-02-04 06:41:00,
2013-02-04 01:52:00,21.0,14.0,30.10,SW,228,1.0,5.0,75,0.00,,,0.00,,2013-02-04 06:52:00,
2013-02-04 02:02:00,21.0,14.0,30.10,SW,229,1.0,4.0,74,0.00,,,0.00,,2013-02-04 07:02:00,
2013-02-04 02:11:00,21.0,14.0,30.10,SW,229,1.0,4.0,74,0.00,,,0.00,,2013-02-04 07:11:00,
2013-02-04 02:21:00,22.0,15.0,30.10,WSW,256,1.0,3.0,74,0.00,,,0.00,,2013-02-04 07:21:00,
2013-02-04 02:32:00,22.0,15.0,30.10,West,261,1.0,4.0,74,0.00,,,0.00,,2013-02-04 07:32:00,
2013-02-04 02:42:00,22.0,15.0,30.10,West,261,1.0,4.0,74,0.00,,,0.00,,2013-02-04 07:42:00,
2013-02-04 02:52:00,22.0,15.0,30.10,West,261,1.0,4.0,74,0.00,,,0.00,,2013-02-04 07:52:00,
2013-02-04 03:01:00,22.0,15.0,30.09,SW,219,0.0,3.0,73,0.00,,,0.00,,2013-02-04 08:01:00,
2013-02-04 03:11:00,22.0,15.0,30.09,SW,219,0.0,3.0,73,0.00,,,0.00,,2013-02-04 08:11:00,
2013-02-04 03:21:00,22.0,15.0,30.11,WSW,238,1.0,3.0,73,0.00,,,0.00,,2013-02-04 08:21:00,
2013-02-04 03:31:00,22.0,15.0,30.10,SW,221,0.0,3.0,73,0.00,,,0.00,,2013-02-04 08:31:00,
2013-02-04 03:42:00,22.0,15.0,30.10,SW,221,0.0,3.0,73,0.00,,,0.00,,2013-02-04 08:42:00,
2013-02-04 03:52:00,22.0,15.0,30.09,SSW,213,0.0,0.0,74,0.00,,,0.00,,2013-02-04 08:52:00,
2013-02-04 04:02:00,21.0,14.0,30.09,SSW,193,0.0,2.0,75,0.00,,,0.00,,2013-02-04 09:02:00,
2013-02-04 04:11:00,21.0,14.0,30.09,SSW,193,0.0,2.0,75,0.00,,,0.00,,2013-02-04 09:11:00,
2013-02-04 04:21:00,21.0,14.0,30.08,SSE,153,0.0,2.0,75,0.00,,,0.00,,2013-02-04 09:21:00,
2013-02-04 04:31:00,21.0,15.0,30.07,SE,130,0.0,2.0,76,0.00,,,0.00,,2013-02-04 09:31:00,
2013-02-04 04:41:00,21.0,15.0,30.07,SE,130,0.0,2.0,76,0.00,,,0.00,,2013-02-04 09:41:00,
2013-02-04 04:52:00,21.0,15.0,30.06,SE,134,0.0,2.0,76,0.00,,,0.00,,2013-02-04 09:52:00,
2013-02-04 05:01:00,21.0,15.0,30.05,SE,130,0.0,2.0,76,0.00,,,0.00,,2013-02-04 10:01:00,
2013-02-04 05:11:00,21.0,15.0,30.05,SE,130,0.0,2.0,76,0.00,,,0.00,,2013-02-04 10:11:00,
2013-02-04 05:21:00,21.0,15.0,30.04,ESE,109,0.0,3.0,77,0.00,,,0.00,,2013-02-04 10:21:00,
2013-02-04 05:32:00,21.0,15.0,30.03,SW,232,0.0,3.0,77,0.00,,,0.00,,2013-02-04 10:32:00,
2013-02-04 05:41:00,21.0,15.0,30.03,SW,232,0.0,3.0,77,0.00,,,0.00,,2013-02-04 10:41:00,
2013-02-04 05:52:00,22.0,16.0,30.02,SE,129,0.0,3.0,78,0.00,,,0.00,,2013-02-04 10:52:00,
2013-02-04 06:02:00,22.0,16.0,30.02,SE,145,0.0,3.0,77,0.00,,,0.00,,2013-02-04 11:02:00,
2013-02-04 06:11:00,22.0,16.0,30.02,SE,145,0.0,3.0,77,0.00,,,0.00,,2013-02-04 11:11:00,
2013-02-04 06:22:00,22.0,16.0,30.01,SE,146,0.0,3.0,77,0.00,,,0.00,,2013-02-04 11:22:00,
2013-02-04 06:32:00,22.0,16.0,30.00,NE,36,0.0,2.0,77,0.00,,,0.00,,2013-02-04 11:32:00,
2013-02-04 06:42:00,22.0,16.0,30.00,NE,36,0.0,2.0,77,0.00,,,0.00,,2013-02-04 11:42:00,
2013-02-04 06:52:00,22.0,16.0,29.99,SE,134,0.0,3.0,78,0.00,,,0.00,,2013-02-04 11:52:00,
2013-02-04 07:02:00,22.0,16.0,29.99,SSE,157,0.0,4.0,78,0.00,,,0.00,,2013-02-04 12:02:00,
2013-02-04 07:12:00,22.0,16.0,29.99,SSE,157,0.0,4.0,78,0.00,,,0.00,,2013-02-04 12:12:00,
2013-02-04 07:22:00,23.0,17.0,29.98,East,88,0.0,4.0,78,0.00,,,0.00,,2013-02-04 12:22:00,
2013-02-04 07:32:00,23.0,17.0,29.98,SE,131,0.0,2.0,78,0.00,,,0.00,,2013-02-04 12:32:00,
2013-02-04 07:42:00,23.0,17.0,29.98,SE,131,0.0,2.0,78,0.00,,,0.00,,2013-02-04 12:42:00,
2013-02-04 07:53:00,23.0,17.0,29.98,ESE,102,1.0,4.0,78,0.00,,,0.00,,2013-02-04 12:53:00,
2013-02-04 08:02:00,23.0,17.0,29.97,SE,128,0.0,2.0,79,0.00,,,0.00,,2013-02-04 13:02:00,
2013-02-04 08:12:00,23.0,17.0,29.96,SE,142,0.0,3.0,79,0.00,,,0.00,,2013-02-04 13:12:00,
2013-02-04 08:21:00,23.0,17.0,29.96,SE,142,0.0,3.0,79,0.00,,,0.00,,2013-02-04 13:21:00,
2013-02-04 08:33:00,23.0,17.0,29.95,SW,228,2.0,6.0,78,0.00,,,0.00,,2013-02-04 13:33:00,
2013-02-04 08:42:00,23.0,17.0,29.95,SW,228,2.0,6.0,78,0.00,,,0.00,,2013-02-04 13:42:00,
2013-02-04 08:52:00,24.0,18.0,29.94,East,98,2.0,6.0,78,0.00,,,0.00,,2013-02-04 13:52:00,
2013-02-04 09:03:00,24.0,18.0,29.95,SSW,211,1.0,7.0,78,0.00,,,0.00,,2013-02-04 14:03:00,
2013-02-04 09:11:00,24.0,18.0,29.95,SSW,211,1.0,7.0,78,0.00,,,0.00,,2013-02-04 14:11:00,
2013-02-04 09:22:00,24.0,18.0,29.95,South,170,1.0,6.0,77,0.00,,,0.00,,2013-02-04 14:22:00,
2013-02-04 09:32:00,25.0,19.0,29.94,South,186,2.0,5.0,76,0.00,,,0.00,,2013-02-04 14:32:00,
2013-02-04 09:42:00,25.0,19.0,29.94,South,186,2.0,5.0,76,0.00,,,0.00,,2013-02-04 14:42:00,
2013-02-04 09:52:00,25.0,18.0,29.93,SSE,153,1.0,5.0,74,0.00,,,0.00,,2013-02-04 14:52:00,
2013-02-04 10:03:00,26.0,19.0,29.93,SW,229,1.0,7.0,73,0.00,,,0.00,,2013-02-04 15:03:00,
2013-02-04 10:12:00,26.0,19.0,29.93,SW,229,1.0,7.0,73,0.00,,,0.00,,2013-02-04 15:12:00,
2013-02-04 10:23:00,26.0,18.0,29.92,North,5,2.0,11.0,72,0.00,,,0.00,,2013-02-04 15:23:00,
2013-02-04 10:33:00,26.0,18.0,29.92,West,277,2.0,6.0,72,0.00,,,0.00,,2013-02-04 15:33:00,
2013-02-04 10:43:00,26.0,18.0,29.92,West,277,2.0,6.0,72,0.00,,,0.00,,2013-02-04 15:43:00,
2013-02-04 10:53:00,27.0,19.0,29.91,ESE,121,1.0,6.0,72,0.00,,,0.00,,2013-02-04 15:53:00,
2013-02-04 11:02:00,27.0,19.0,29.91,SSE,165,2.0,5.0,71,0.00,,,0.00,,2013-02-04 16:02:00,
2013-02-04 11:11:00,27.0,19.0,29.91,SSE,165,2.0,5.0,71,0.00,,,0.00,,2013-02-04 16:11:00,
2013-02-04 11:22:00,27.0,19.0,29.90,SSE,156,1.0,4.0,72,0.00,,,0.00,,2013-02-04 16:22:00,
2013-02-04 11:33:00,28.0,20.0,29.89,SE,128,1.0,5.0,72,0.00,,,0.00,,2013-02-04 16:33:00,
2013-02-04 11:42:00,28.0,20.0,29.89,SE,128,1.0,5.0,72,0.00,,,0.00,,2013-02-04 16:42:00,
2013-02-04 11:52:00,29.0,21.0,29.89,ENE,71,1.0,6.0,71,0.00,,,0.00,,2013-02-04 16:52:00,
2013-02-04 12:02:00,29.0,21.0,29.89,WSW,240,0.0,4.0,71,0.00,,,0.00,,2013-02-04 17:02:00,
2013-02-04 12:11:00,29.0,21.0,29.89,WSW,240,0.0,4.0,71,0.00,,,0.00,,2013-02-04 17:11:00,
2013-02-04 12:21:00,30.0,21.0,29.89,WSW,254,1.0,4.0,70,0.00,,,0.00,,2013-02-04 17:21:00,
2013-02-04 12:32:00,30.0,21.0,29.88,SW,228,0.0,3.0,69,0.00,,,0.00,,2013-02-04 17:32:00,
2013-02-04 12:42:00,30.0,21.0,29.88,SW,228,0.0,3.0,69,0.00,,,0.00,,2013-02-04 17:42:00,
2013-02-04 12:52:00,32.0,23.0,29.88,SE,146,0.0,3.0,68,0.00,,,0.00,,2013-02-04 17:52:00,
2013-02-04 13:03:00,33.0,23.0,29.87,South,191,1.0,5.0,65,0.01,,,0.01,,2013-02-04 18:03:00,
2013-02-04 13:11:00,33.0,23.0,29.87,South,191,1.0,5.0,65,0.01,,,0.01,,2013-02-04 18:11:00,
2013-02-04 13:22:00,33.0,23.0,29.86,ESE,115,0.0,3.0,66,0.01,,,0.01,,2013-02-04 18:22:00,
2013-02-04 13:32:00,33.0,23.0,29.86,SSW,198,1.0,4.0,66,0.01,,,0.01,,2013-02-04 18:32:00,
2013-02-04 13:42:00,33.0,23.0,29.86,SSW,198,1.0,4.0,66,0.01,,,0.01,,2013-02-04 18:42:00,
2013-02-04 13:52:00,33.0,24.0,29.85,WSW,242,2.0,7.0,69,0.01,,,0.01,,2013-02-04 18:52:00,
2013-02-04 14:02:00,33.0,26.0,29.84,WSW,240,2.0,7.0,74,0.00,,,0.01,,2013-02-04 19:02:00,
2013-02-04 14:11:00,33.0,26.0,29.84,WSW,240,2.0,7.0,74,0.00,,,0.01,,2013-02-04 19:11:00,
2013-02-04 14:22:00,34.0,28.0,29.84,SSE,151,3.0,7.0,77,0.00,,,0.01,,2013-02-04 19:22:00,
2013-02-04 14:31:00,34.0,28.0,29.84,SW,229,1.0,6.0,79,0.00,,,0.01,,2013-02-04 19:31:00,
2013-02-04 14:42:00,34.0,28.0,29.84,SW,229,1.0,6.0,79,0.00,,,0.01,,2013-02-04 19:42:00,
2013-02-04 14:52:00,34.0,28.0,29.82,WSW,246,3.0,8.0,79,0.00,,,0.01,,2013-02-04 19:52:00,
2013-02-04 15:02:00,34.0,28.0,29.81,WSW,244,3.0,7.0,80,0.01,,,0.02,,2013-02-04 20:02:00,
2013-02-04 15:12:00,34.0,28.0,29.81,WSW,244,3.0,7.0,80,0.01,,,0.02,,2013-02-04 20:12:00,
2013-02-04 15:22:00,34.0,28.0,29.81,WSW,244,3.0,7.0,80,0.01,,,0.02,,2013-02-04 20:22:00,
2013-02-04 15:32:00,35.0,30.0,29.83,SW,222,1.0,4.0,81,0.01,,,0.02,,2013-02-04 20:32:00,
2013-02-04 15:42:00,35.0,30.0,29.83,SW,222,1.0,4.0,81,0.01,,,0.02,,2013-02-04 20:42:00,
2013-02-04 15:52:00,36.0,30.0,29.82,West,261,3.0,7.0,79,0.01,,,0.02,,2013-02-04 20:52:00,
2013-02-04 16:02:00,36.0,30.0,29.82,SW,227,1.0,6.0,78,0.00,,,0.02,,2013-02-04 21:02:00,
2013-02-04 16:11:00,36.0,30.0,29.82,SW,227,1.0,6.0,78,0.00,,,0.02,,2013-02-04 21:11:00,
2013-02-04 16:22:00,37.0,30.0,29.82,West,262,3.0,8.0,76,0.00,,,0.02,,2013-02-04 21:22:00,
2013-02-04 16:31:00,37.0,30.0,29.83,SW,231,2.0,8.0,75,0.00,,,0.02,,2013-02-04 21:31:00,
2013-02-04 16:42:00,37.0,30.0,29.83,SW,231,2.0,8.0,75,0.00,,,0.02,,2013-02-04 21:42:00,
2013-02-04 16:52:00,38.0,31.0,29.83,WSW,257,2.0,6.0,75,0.00,,,0.02,,2013-02-04 21:52:00,
2013-02-04 17:02:00,38.0,30.0,29.83,West,276,3.0,6.0,74,0.00,,,0.02,,2013-02-04 22:02:00,
2013-02-04 17:12:00,38.0,30.0,29.83,West,276,3.0,6.0,74,0.00,,,0.02,,2013-02-04 22:12:00,
2013-02-04 17:21:00,37.0,30.0,29.83,WSW,244,2.0,4.0,75,0.00,,,0.02,,2013-02-04 22:21:00,
2013-02-04 17:32:00,36.0,29.0,29.84,West,267,0.0,6.0,75,0.00,,,0.02,,2013-02-04 22:32:00,
2013-02-04 17:42:00,36.0,29.0,29.84,West,267,0.0,6.0,75,0.00,,,0.02,,2013-02-04 22:42:00,
2013-02-04 17:52:00,36.0,29.0,29.83,WNW,285,0.0,3.0,77,0.00,,,0.02,,2013-02-04 22:52:00,
2013-02-04 18:01:00,35.0,29.0,29.83,WNW,285,0.0,0.0,77,0.00,,,0.02,,2013-02-04 23:01:00,
2013-02-04 18:11:00,35.0,29.0,29.83,WNW,285,0.0,0.0,77,0.00,,,0.02,,2013-02-04 23:11:00,
2013-02-04 18:21:00,35.0,29.0,29.83,WNW,285,0.0,0.0,78,0.00,,,0.02,,2013-02-04 23:21:00,
2013-02-04 18:32:00,33.0,28.0,29.83,WNW,285,0.0,0.0,80,0.00,,,0.02,,2013-02-04 23:32:00,
2013-02-04 18:42:00,33.0,28.0,29.83,WNW,285,0.0,0.0,80,0.00,,,0.02,,2013-02-04 23:42:00,
2013-02-04 18:52:00,32.0,27.0,29.83,WNW,285,0.0,0.0,81,0.00,,,0.02,,2013-02-04 23:52:00,
2013-02-04 19:01:00,31.0,26.0,29.83,WNW,285,0.0,0.0,83,0.00,,,0.02,,2013-02-05 00:01:00,
2013-02-04 19:11:00,31.0,26.0,29.83,WNW,285,0.0,0.0,83,0.00,,,0.02,,2013-02-05 00:11:00,
2013-02-04 19:22:00,30.0,26.0,29.85,WNW,285,0.0,0.0,84,0.00,,,0.02,,2013-02-05 00:22:00,
2013-02-04 19:31:00,29.0,25.0,29.86,WNW,285,0.0,0.0,85,0.00,,,0.02,,2013-02-05 00:31:00,
2013-02-04 19:42:00,29.0,25.0,29.86,WNW,285,0.0,0.0,85,0.00,,,0.02,,2013-02-05 00:42:00,
2013-02-04 19:52:00,29.0,26.0,29.87,WNW,297,0.0,2.0,88,0.00,,,0.02,,2013-02-05 00:52:00,
2013-02-04 20:01:00,30.0,26.0,29.88,West,277,0.0,3.0,85,0.00,,,0.02,,2013-02-05 01:01:00,
2013-02-04 20:11:00,30.0,26.0,29.88,West,277,0.0,3.0,85,0.00,,,0.02,,2013-02-05 01:11:00,
2013-02-04 20:22:00,31.0,26.0,29.88,NW,325,0.0,5.0,83,0.00,,,0.02,,2013-02-05 01:22:00,
2013-02-04 20:32:00,31.0,26.0,29.88,NE,35,1.0,4.0,82,0.00,,,0.02,,2013-02-05 01:32:00,
2013-02-04 20:42:00,31.0,26.0,29.88,NE,35,1.0,4.0,82,0.00,,,0.02,,2013-02-05 01:42:00,
2013-02-04 20:52:00,31.0,26.0,29.89,NNE,17,1.0,3.0,82,0.00,,,0.02,,2013-02-05 01:52:00,
2013-02-04 21:01:00,31.0,26.0,29.90,NNW,333,1.0,7.0,82,0.00,,,0.02,,2013-02-05 02:01:00,
2013-02-04 21:11:00,31.0,26.0,29.90,NNW,333,1.0,7.0,82,0.00,,,0.02,,2013-02-05 02:11:00,
2013-02-04 21:22:00,31.0,26.0,29.91,NNW,329,3.0,5.0,82,0.00,,,0.02,,2013-02-05 02:22:00,
2013-02-04 21:32:00,31.0,26.0,29.91,North,11,1.0,4.0,81,0.00,,,0.02,,2013-02-05 02:32:00,
2013-02-04 21:41:00,31.0,26.0,29.91,North,11,1.0,4.0,81,0.00,,,0.02,,2013-02-05 02:41:00,
2013-02-04 21:52:00,30.0,25.0,29.91,North,360,3.0,9.0,81,0.00,,,0.02,,2013-02-05 02:52:00,
2013-02-04 22:02:00,30.0,25.0,29.91,NNW,338,2.0,5.0,82,0.00,,,0.02,,2013-02-05 03:02:00,
2013-02-04 22:11:00,30.0,25.0,29.91,NNW,338,2.0,5.0,82,0.00,,,0.02,,2013-02-05 03:11:00,
2013-02-04 22:21:00,30.0,25.0,29.91,NNW,344,3.0,6.0,80,0.00,,,0.02,,2013-02-05 03:21:00,
2013-02-04 22:32:00,29.0,24.0,29.92,NNW,329,1.0,6.0,80,0.00,,,0.02,,2013-02-05 03:32:00,
2013-02-04 22:42:00,29.0,24.0,29.92,NNW,329,1.0,6.0,80,0.00,,,0.02,,2013-02-05 03:42:00,
2013-02-04 22:52:00,29.0,24.0,29.91,NE,44,2.0,7.0,80,0.00,,,0.02,,2013-02-05 03:52:00,
2013-02-04 23:01:00,29.0,24.0,29.91,NNW,334,2.0,5.0,81,0.00,,,0.02,,2013-02-05 04:01:00,
2013-02-04 23:11:00,29.0,24.0,29.91,NNW,334,2.0,5.0,81,0.00,,,0.02,,2013-02-05 04:11:00,
2013-02-04 23:21:00,29.0,24.0,29.91,NNW,334,2.0,5.0,81,0.00,,,0.02,,2013-02-05 04:21:00,
2013-02-04 23:32:00,28.0,23.0,29.92,NNW,337,2.0,6.0,82,0.00,,,0.02,,2013-02-05 04:32:00,
2013-02-04 23:42:00,28.0,23.0,29.92,NNW,337,2.0,6.0,82,0.00,,,0.02,,2013-02-05 04:42:00,
2013-02-04 23:52:00,28.0,23.0,29.92,NNW,337,2.0,6.0,82,0.00,,,0.02,,2013-02-05 04:52:00,